Location: Newark
(45.6667°N, 9.8167°E)
Time: 07:06:56
(UTC+00:00)

N. Korean satellite - Visible Passes

Search period start: 19 January 2020 00:00
Search period end: 29 January 2020 00:00
Orbit: 454 x 508 km, 97.2° (Epoch: 18 January)

Date Brightness Start Highest point End Pass type
(mag) Time Alt. Az. Time Alt. Az. Time Alt. Az.
19 Jan 6.6 05:10:32 10° NNE 05:14:03 75° ESE 05:17:36 10° S visible
19 Jan 9.8 17:23:07 10° SW 17:25:01 14° W 17:26:55 10° WNW visible
20 Jan 8.2 04:45:15 10° NNE 04:48:31 34° E 04:51:47 10° SSE visible
20 Jan 8.1 06:19:21 10° NNW 06:21:39 17° WNW 06:23:59 10° WSW visible
20 Jan 8.9 16:56:22 10° SSW 16:59:20 28° W 17:02:21 10° NW visible
21 Jan 9.5 04:20:24 10° NE 04:22:53 18° E 04:25:22 10° SE visible
21 Jan 7.3 05:53:11 10° N 05:56:20 31° WNW 05:59:32 10° SW visible
22 Jan 6.4 05:27:25 10° N 05:30:56 65° WNW 05:34:29 10° SSW visible
23 Jan 7.1 05:01:56 10° NNE 05:05:26 58° E 05:09:00 10° S visible
23 Jan 9.6 17:13:57 10° SW 17:16:19 18° W 17:18:42 10° NW visible
24 Jan 8.7 04:36:45 10° NE 04:39:52 28° E 04:43:00 10° SSE visible
24 Jan 7.8 06:10:25 10° NNW 06:13:07 21° WNW 06:15:50 10° WSW visible
24 Jan 8.4 16:47:30 10° SSW 16:50:40 35° W 16:53:51 10° NNW visible
25 Jan 9.8 04:12:08 10° ENE 04:14:12 15° E 04:16:16 10° SE visible
25 Jan 7.0 05:44:24 10° N 05:47:46 39° WNW 05:51:09 10° SW visible
26 Jan 6.4 05:18:44 10° N 05:22:19 84° WNW 05:25:57 10° SSW visible
26 Jan 10.1 17:32:17 10° WSW 17:33:19 11° W 17:34:23 10° WNW visible
27 Jan 7.7 04:53:20 10° NNE 04:56:48 45° E 05:00:18 10° S visible
27 Jan 9.4 17:04:53 10° SSW 17:07:36 22° W 17:10:21 10° NW visible
28 Jan 9.1 04:28:17 10° NE 04:31:12 23° E 04:34:08 10° SSE visible
28 Jan 7.6 06:01:32 10° NNW 06:04:32 26° WNW 06:07:35 10° SW visible
